Location: Bougoura
(13.1861°N, 5.0773°W)
Time: 01:36:13
(UTC+00:00)

ARGOS - Pass Details

Date: 18 September 2020
Orbit: 821 x 834 km, 98.4° (Epoch: 21 October)

Event Time Altitude Azimuth Distance (km) Brightness Sun altitude
Exits shadow 19:12:07 19° 89° (E) 1,842 4.3 -13.7°
Maximum altitude 19:13:08 20° 74° (ENE) 1,791 4.3 -14.0°
Drops below altitude 10° 19:16:58 10° 28° (NNE) 2,412 5.4 -14.9°
Sets 19:19:52 0° 12° (NNE) 3,345 6.2 -15.6°
